Retour au catalogue

STARLINK-3229

ActifCommunicationsVLEO
NORAD 49751·PAYLOAD·🇺🇸 United States

Lancé Dec 2, 2021 depuis Cape Canaveral Space Force Station

Loading…

Prochains Passages (prochaines 24 heures)

TLE

FraisSource: CelesTrak SupGP

Époque: Sep 14, 2026, 21:11 UTC

1 49751C 21115AD  26257.88312500 -.00005649  00000+0 -16704-3 0  2578
2 49751  53.1596  14.3253 0001252  84.2827 172.6590 15.34365401    19

Suivez STARLINK-3229 en temps réel avec AllMySat

Download on the App Store